Burnet, TX

1:07 PM CDT on July 28, 2017 (GMT -0500)
Burnet Municipal-Craddock

Weather History for KBMQ - February, 2015

Change the Weather History Date:

Tuesday, February 10, 2015

  Actual Average Record
Temperature  
Mean Temperature 62 °F -  
Max Temperature 79 °F 59 °F 84 °F (2000)
Min Temperature 45 °F 39 °F 16 °F (2011)
Degree Days  
Heating Degree Days 3    
Growing Degree Days 12 (Base 50)    
Moisture  
Dew Point 40 °F    
Average Humidity 48    
Maximum Humidity 74    
Minimum Humidity 28    
Precipitation  
Precipitation 0.00 in - - ()
Sea Level Pressure  
Sea Level Pressure 29.99 in    
Wind  
Wind Speed 4 mph (South)    
Max Wind Speed 14 mph    
Max Gust Speed 21 mph    
Visibility 10 miles    
Events      
Averages and records for this station are not official NWS values.
T = Trace of Precipitation, MM = Missing Value Source: NWS Daily Summary

Daily Weather History Graph

Daily Weather History Graph

Search for Another Location

Airport or City:

Trip Planner

Search our weather history database for the weather conditions in past years. The results will help you decide how hot, cold, wet, or windy it might be!

Date:

Astronomy

Feb. 10, 2015 Rise Set
Actual Time 7:18 AM CST 6:16 PM CST
Civil Twilight 6:53 AM CST 6:41 PM CST
Nautical Twilight 6:24 AM CST 7:09 PM CST
Astronomical Twilight 5:56 AM CST 7:38 PM CST
Moon No Moon Rise 10:56 AM CST (2/10)
Length of Visible Light 11h 48m
Length of Day
10h 58m
Waning Gibbous, 64% of the Moon is Illuminated
Feb 10
Waning Gibbous
Feb 11
Last Quarter
Feb 18
New
Feb 25
First Quarter
Mar 5
Full

Hourly Weather History & Observations

Time (CST) Temp. Dew Point Humidity Pressure Visibility Wind Dir Wind Speed Gust Speed Precip Events Conditions
12:53 AM 53.1 °F 37.9 °F 57% 30.05 in 10.0 mi NE 5.8 mph - N/A   Clear
1:53 AM 53.1 °F 37.9 °F 57% 30.04 in 10.0 mi Calm Calm - N/A   Clear
2:53 AM 54.0 °F 37.0 °F 53% 30.03 in 10.0 mi Calm Calm - N/A   Clear
3:53 AM 50.0 °F 37.0 °F 61% 30.02 in 10.0 mi Calm Calm - N/A   Clear
4:53 AM 46.9 °F 37.0 °F 68% 30.02 in 10.0 mi Calm Calm - N/A   Clear
5:53 AM 46.0 °F 37.0 °F 71% 30.03 in 10.0 mi Calm Calm - N/A   Clear
6:53 AM 45.0 °F 37.0 °F 74% 30.05 in 10.0 mi Calm Calm - N/A   Clear
7:53 AM 48.9 °F 37.9 °F 66% 30.06 in 10.0 mi Calm Calm - N/A   Clear
8:53 AM 57.0 °F 39.0 °F 51% 30.06 in 10.0 mi South 5.8 mph - N/A   Clear
9:53 AM 62.1 °F 37.9 °F 41% 30.06 in 10.0 mi South 9.2 mph - N/A   Clear
10:53 AM 66.0 °F 37.9 °F 36% 30.05 in 10.0 mi South 9.2 mph 17.3 mph N/A   Clear
11:53 AM 70.0 °F 41.0 °F 35% 30.03 in 10.0 mi South 9.2 mph - N/A   Clear
12:53 PM 73.9 °F 39.9 °F 29% 29.99 in 10.0 mi South 11.5 mph - N/A   Clear
1:53 PM 77.0 °F 41.0 °F 28% 29.95 in 10.0 mi South 9.2 mph 18.4 mph N/A   Clear
2:53 PM 78.1 °F 42.1 °F 28% 29.92 in 10.0 mi South 11.5 mph - N/A   Clear
3:53 PM 79.0 °F 43.0 °F 28% 29.91 in 10.0 mi South 11.5 mph 20.7 mph N/A   Clear
4:53 PM 78.1 °F 43.0 °F 29% 29.90 in 10.0 mi South 13.8 mph 20.7 mph N/A   Clear
5:53 PM 75.9 °F 44.1 °F 32% 29.90 in 10.0 mi South 9.2 mph - N/A   Clear
6:53 PM 70.0 °F 44.1 °F 39% 29.91 in 10.0 mi South 6.9 mph - N/A   Clear
7:53 PM 66.0 °F 43.0 °F 43% 29.92 in 10.0 mi South 4.6 mph - N/A   Clear
8:53 PM 63.0 °F 44.1 °F 50% 29.93 in 10.0 mi SSW 3.5 mph - N/A   Clear
9:53 PM 60.1 °F 44.1 °F 55% 29.94 in 10.0 mi Calm Calm - N/A   Clear
10:53 PM 60.1 °F 44.1 °F 55% 29.94 in 10.0 mi South 4.6 mph - N/A   Clear
11:53 PM 59.0 °F 44.1 °F 58% 29.93 in 10.0 mi Calm Calm - N/A   Clear